TIME,DELAY(SENSOR),PRES,OXYGEN,RAWTEMP,T(OPTODE),TCPHASE,FLUOR,BETA(BETA700),BETA(BETA412),BETA(BETA440),CDOM,C(CSC),ED(ED412.40),ED(ED444.00),ED(ED489.70),ED(ED554.30),LU(LU411.80),LU(LU443.40),LU(LU489.60),LU(LU554.10),COMP,TILTX,TILTY,CHECK
1352258983,5809,884.5999755859375000,44.6192703247070300,662.4926757812500000,4.5458760261535645,54.3456192016601560,53,98,85,78,81,15215,2147756068,2147422272,2148008109,2147872274,2147641133,2147058102,2148263113,2147199040,2675,4,13,33707
1352262579,5810,975.2700195312500000,47.8174781799316400,668.4851074218750000,4.3482270240783690,53.9556884765625000,52,102,86,79,80,15194,2147755593,2147421440,2148010450,2147874998,2147641673,2147057344,2148261613,2147199369,3097,4,13,46995
1352266179,5808,986.4400024414062000,47.0703392028808600,668.0921020507812000,4.3612017631530760,54.0571594238281250,53,99,88,77,81,15193,2147757595,2147420224,2148009801,2147873874,2147641179,2147063542,2148258715,2147197421,865,4,13,3981
1352269779,5809,988.5100097656250000,48.0317192077636700,669.9948120117188000,4.2983679771423340,53.9467391967773440,52,100,90,78,81,15192,2147760576,2147420187,2148009600,2147875547,2147643154,2147061275,2148261659,2147198162,418,4,13,26649
1352273379,5811,988.5300292968750000,48.3624801635742200,671.6599731445312000,4.2433447837829590,53.9180412292480500,52,100,84,80,80,15194,2147760466,2147419154,2148008621,2147876306,2147641718,2147055469,2148264694,2147197677,203,4,13,23954
1352276979,5810,984.6799926757812000,48.4869308471679700,672.9868164062500000,4.1994838714599610,53.9136695861816400,53,97,87,79,82,15195,2147760219,2147419940,2148007314,2147874998,2147643346,2147058505,2148264310,2147198491,68,5,13,1357
1352280579,5810,986.4400024414062000,48.4836502075195300,673.3671875000000000,4.1868991851806640,53.9230384826660160,53,98,84,78,82,15195,2147758902,2147421668,2148008146,2147873609,2147641426,2147059008,2148258916,2147199424,88,5,13,43521
1352284179,5810,990.5999755859375000,48.0791091918945300,673.1975097656250000,4.1925129890441895,53.9800300598144500,53,101,89,79,82,15194,2147761828,2147418715,2148007030,2147873042,2147639305,2147062710,2148265956,2147201042,451,4,13,29087
1352287779,5809,989.3200073242188000,48.3030090332031250,673.2551879882812000,4.1906051635742190,53.9504585266113300,52,102,90,78,81,15173,2147758802,2147422180,2148007936,2147876507,2147643200,2147054208,2148266569,2147197668,159,4,13,15834
1352291379,5810,994.7399902343750000,48.3321609497070300,672.7357177734375000,4.2077851295471190,53.9379081726074200,52,103,86,79,80,15172,2147756233,2147421851,2148009718,2147876699,2147641709,2147054582,2148264457,2147197760,565,4,13,10955
1352294979,5813,992.4799804687500000,48.0810890197753900,672.5010986328125000,4.2155418395996090,53.9697113037109400,52,98,91,77,81,15170,2147756699,2147420425,2148006345,2147875154,2147640054,2147056000,2148263670,2147199689,60,5,13,52460
1352298579,5808,994.7899780273438000,47.9892501831054700,673.6348876953125000,4.1780490875244140,53.9966812133789060,52,100,87,80,82,15174,2147759140,2147422619,2148010624,2147872768,2147642313,2147053101,2148266706,2147198025,76,5,13,23339
1352302179,5805,994.2800292968750000,48.1851806640625000,673.3524780273438000,4.1873869895935060,53.9664382934570300,53,101,86,78,81,15169,2147757385,2147418605,2148009728,2147874176,2147642989,2147062674,2148262619,2147200786,155,4,13,42814
1352305779,5808,993.5900268554688000,47.8338508605957000,672.7561035156250000,4.2071089744567870,54.0044593811035160,53,102,86,78,80,15168,2147759140,2147419245,2148009792,2147873261,2147644617,2147055058,2148257462,2147201810,2999,4,13,49144
1352309379,5809,999.9400024414062000,47.6828498840332000,672.0297241210938000,4.2311267852783200,54.0208892822265600,53,100,87,79,82,15159,2147759387,2147418422,2148005339,2147872310,2147642843,2147057161,2148266404,2147199890,618,4,13,12862
1352312979,5809,998.9299926757812000,47.6915817260742200,672.8939208984375000,4.2025527954101560,54.0252685546875000,54,104,87,79,81,15169,2147762011,2147420096,2148008694,2147874166,2147644160,2147061522,2148263405,2147197504,302,4,13,64576
1352316579,5807,996.9899902343750000,48.1886901855468750,673.5114746093750000,4.1821289062500000,53.9659996032714840,52,99,85,80,82,15166,2147759369,2147420900,2148008164,2147873444,2147642020,2147059501,2148264000,2147203648,3593,4,13,7375
1352320179,5808,991.8200073242188000,48.0852203369140600,674.5288696289062000,4.1484761238098145,53.9910812377929700,53,100,90,79,82,15164,2147760091,2147421348,2148008082,2147873325,2147644973,2147058587,2148260470,2147198107,483,4,13,22084
1352323779,5809,994.0800170898438000,48.4653892517089840,674.3394775390625000,4.1547389030456540,53.9364585876464840,53,99,90,80,81,15165,2147758866,2147420626,2148008832,2147875556,2147643812,2147061202,2148261769,2147196617,451,4,13,64161
1352327379,5806,992.2199707031250000,48.0783691406250000,673.9210815429688000,4.1685791015625000,53.9899291992187500,53,100,88,78,81,15130,2147757979,2147421467,2148008338,2147873755,2147643392,2147062052,2148262738,2147195712,518,4,13,32561
1352330979,5813,994.2899780273438000,48.0236396789550800,674.7847290039062000,4.1400132179260250,54.0086708068847660,52,115,88,80,81,15129,2147759780,2147422217,2148010651,2147874989,2147643629,2147060489,2148261129,2147201947,349,4,13,37420
1352334579,5810,1008.8499755859375000,48.4426918029785160,674.3372802734375000,4.1548118591308590,53.9392204284668000,52,98,85,81,80,15159,2147756690,2147419830,2148008987,2147877357,2147643483,2147055789,2148260361,2147201984,381,4,13,40444
1352338179,5807,1003.2299804687500000,47.7980003356933600,673.5858764648438000,4.1796698570251465,54.0187301635742200,52,98,88,78,81,15162,2147756160,2147418441,2148011958,2147878125,2147644105,2147063734,2148259437,2147201051,3258,4,13,56521
1352341779,5812,994.2500000000000000,47.9997596740722660,674.0543823242188000,4.1641712188720700,54.0028495788574200,52,98,87,79,80,15160,2147758976,2147418971,2148006948,2147875218,2147642176,2147054171,2148261193,2147201499,9,4,13,5807
1352345379,5809,1001.4899902343750000,48.3894500732421900,674.4531250000000000,4.1509819030761720,53.9507789611816400,53,97,88,79,81,15161,2147758509,2147418797,2148009417,2147872859,2147645988,2147060096,2148258907,2147198281,960,4,13,63829
1352348979,5808,1003.3300170898438000,48.2421112060546900,673.8400268554688000,4.1712632179260250,53.9630393981933600,52,98,87,80,82,15158,2147757421,2147420553,2148008438,2147876672,2147642002,2147054921,2148262244,2147200841,3195,4,13,23231
1352352579,5811,1003.5300292968750000,47.7798995971679700,673.1624145507812000,4.1936740875244140,54.0223808288574200,52,98,87,79,81,15157,2147759899,2147418834,2148009929,2147873225,2147643154,2147060644,2148261622,2147196662,220,4,13,17842
1352356179,5811,1009.4000244140625000,47.5092506408691400,671.8911743164062000,4.2357039451599120,54.0413017272949200,53,100,89,80,81,15159,2147758793,2147421275,2148011693,2147875620,2147642669,2147056740,2148263460,2147203017,63,5,13,37539
1352359779,5811,1002.5700073242188000,47.0497207641601560,672.6013793945312000,4.2122230529785160,54.1169509887695300,52,100,87,80,82,15159,2147759186,2147419995,2148009042,2147875355,2147641846,2147056512,2148260214,2147198253,80,5,13,25489
1352363379,5807,1000.2899780273438000,47.2621116638183600,673.6328125000000000,4.1781182289123535,54.1014900207519500,52,99,86,79,81,15158,2147759725,2147420461,2148009508,2147874669,2147642176,2147061266,2148267465,2147198134,3563,4,13,64385
1352366979,5810,1006.8800048828125000,47.1843605041503900,673.7609252929688000,4.1738820075988770,54.1111297607421900,52,99,86,79,82,15159,2147757613,2147421037,2148008137,2147875291,2147641325,2147051712,2148263405,2147199405,219,4,13,62626
1352370579,5807,1003.2100219726562000,47.6976890563964840,673.7515869140625000,4.1741890907287600,54.0386886596679700,53,97,88,79,81,15158,2147757659,2147422144,2148007414,2147873307,2147642276,2147054354,2148261504,2147202413,350,4,13,39735
1352374179,5811,1001.2800292968750000,47.6608314514160160,674.0767211914062000,4.1634349822998050,54.0502891540527340,52,98,87,79,81,15156,2147761179,2147420269,2148010240,2147873270,2147644891,2147056310,2148265334,2147198665,32,4,13,22983
1352377779,5811,1010.0999755859375000,48.2319488525390600,673.5286865234375000,4.1815609931945800,53.9593696594238300,52,99,85,78,81,15155,2147757046,2147418880,2148012379,2147873078,2147644022,2147055378,2148263826,2147197705,291,4,13,27330
1352381379,5810,1007.0300292968750000,47.7527313232421900,672.9970703125000000,4.1991419792175290,54.0211601257324200,52,99,92,80,81,15153,2147757659,2147418130,2148007506,2147876507,2147642523,2147055561,2148262875,2147196470,87,5,13,37639
1352384979,5810,1009.3900146484375000,47.8904190063476560,673.6156005859375000,4.1786861419677730,54.0118904113769500,52,100,87,80,81,15152,2147758765,2147419099,2148012342,2147874020,2147640685,2147062354,2148261997,2147198171,350,4,13,1532
1352388579,5807,1006.8699951171875000,48.0229301452636700,673.6298828125000000,4.1782112121582030,53.9903602600097660,52,98,89,78,82,15152,2147759853,2147419593,2148009810,2147873600,2147641682,2147062902,2148263460,2147197878,3292,4,13,63858
1352392179,5810,1008.1699829101562000,47.9230003356933600,673.7039794921875000,4.1757640838623050,54.0081214904785160,53,99,85,79,81,15156,2147757056,2147419803,2148007488,2147876571,2147641234,2147058029,2148257627,2147199798,46,5,13,51009
1352395779,5809,1012.3800048828125000,47.5455589294433600,672.5214233398438000,4.2148699760437010,54.0416717529296900,52,99,86,79,81,15153,2147756946,2147418294,2148008493,2147875108,2147643026,2147056246,2148260406,2147198445,115,4,13,55712
1352399379,5809,1012.4000244140625000,47.0283699035644500,672.3895263671875000,4.2192330360412600,54.1147689819335940,52,98,87,79,80,15152,2147756132,2147421705,2148011446,2147872018,2147640512,2147060352,2148260187,2147201280,103,4,13,62118
1352402979,5805,1008.8499755859375000,47.1282997131347660,672.9345703125000000,4.2012062072753910,54.1114692687988300,52,101,87,79,82,15149,2147758171,2147420662,2148010971,2147874313,2147640036,2147057051,2148262253,2147198372,293,4,13,28016
1352403956,5806,1010.6199951171875000,47.1581802368164060,673.1179199218750000,4.1951479911804200,54.1070289611816400,52,99,85,78,82,15207,2147756470,2147419702,2148007350,2147874989,2147642240,2147063899,2148262217,2147197202,3407,4,13,51780
